[[{"header":{"parameterUnit":"m.s-1","parameterCategory":1,"la1":30.2991,"la2":30.254,"lo1":-89.0895,"lo2":-89.0444,"dy":0.0017,"dx":0.0017,"nx":28,"ny":28,"refTime":"2024-06-15T09:00:00:Z","depth":0,"parameterNumber":2,"parameterNumberName":"U-component_of_WINDS"},"data":[0,0,0,0,0,0,0,0,0,0,0,0,0,0,0,0,0,0,0,0,0,0,0,0,0,0,0,0,0,0,0,0,0,0,0,0,0,0,0,0,0,0,0,0,0,0,0,0,0,0,0,0,0,0,0,0,0,0,1.5649,1.565,0,1.5692,1.5692,1.5693,1.5707,1.5707,1.5707,1.5706,1.5746,1.5747,1.5748,0,0,0,0,0,0,0,0,0,0,0,0,0,1.5576,1.5577,1.5649,1.565,1.565,1.5692,1.5692,1.5693,1.5707,1.5707,1.5707,1.5706,1.5745,1.5747,1.5748,0,0,0,0,0,0,0,0,0,0,0,0,0,1.5612,1.5577,1.5649,1.5663,1.5664,1.5691,1.5692,1.5693,1.5707,1.5707,1.5706,1.5706,1.5745,1.5746,1.5748,1.5764,0,0,1.5754,1.5754,0,0,0,0,0,0,0,0,1.561,1.5614,1.566,1.5662,1.5664,1.5694,1.568,1.5716,1.5707,1.5691,1.5706,1.5706,1.5728,1.5731,1.574,1.5766,1.5767,1.5754,1.5755,1.5756,1.5756,0,0,0,0,0,0,0,1.5607,1.5613,1.5666,1.5661,1.5663,1.5665,1.5669,1.5687,1.571,1.5692,1.5693,1.5698,1.5729,1.5738,1.5741,1.5768,1.5754,1.5755,1.5756,1.5757,1.5807,1.5807,0,0,0,0,0,0,1.5603,1.561,1.5665,1.5667,1.5636,1.5666,1.5672,1.5684,1.571,1.5714,1.5698,1.5699,1.5735,1.5739,1.5742,1.5761,1.5756,1.5757,1.5758,1.5807,1.5807,1.5807,0,0,0,0,0,0,1.5601,1.5608,1.5663,1.5639,1.5646,1.5668,1.5682,1.5685,1.5694,1.5715,1.5718,1.5704,1.5735,1.574,1.5758,1.5763,1.5758,1.576,1.5806,1.5807,1.5807,1.58,0,0,0,0,0,0,1.5599,1.5607,1.5615,1.5639,1.5648,1.568,1.5682,1.5686,1.5698,1.5699,1.5721,1.5724,1.5735,1.5755,1.576,1.5765,1.5761,1.5806,1.5806,1.5807,1.58,1.58,1.58,0,0,0,0,0,1.5597,1.5611,1.5615,1.5622,1.5658,1.568,1.5685,1.5698,1.5698,1.5705,1.5718,1.5723,1.5761,1.5757,1.5762,1.5768,1.5806,1.5806,1.5807,1.58,1.58,1.58,0,0,0,0,0,0,1.5585,1.5614,1.5619,1.5642,1.5659,1.5683,1.5692,1.5698,1.5715,1.5715,1.5729,1.5734,1.5751,1.5762,1.5756,1.5784,1.5784,1.5785,1.5777,1.5777,1.5777,1.5774,1.5763,0,0,0,0,0,1.5585,1.5603,1.5627,1.5644,1.5652,1.5671,1.5681,1.569,1.5707,1.5714,1.5728,1.5743,1.5758,1.5768,1.5784,1.5801,1.5805,1.5808,1.5808,1.5808,1.5809,1.5817,1.5818,1.5809,1.5809,1.5809,0,0,1.5586,1.5604,1.5614,1.5642,1.5656,1.5672,1.5676,1.5693,1.5705,1.5716,1.5735,1.5745,1.5763,1.5781,1.5789,1.579,1.5812,1.5808,1.5808,1.581,1.5818,1.5819,1.582,1.5809,1.5809,1.5809,0,0,1.5595,1.5611,1.5627,1.564,1.5662,1.5673,1.5677,1.57,1.5708,1.5727,1.5735,1.5748,1.5774,1.5786,1.5795,1.5807,1.5812,1.5811,1.5812,1.582,1.5821,1.5821,1.5824,1.5825,1.5812,1.5812,1.5812,0,1.5592,1.5618,1.5634,1.565,1.5661,1.5673,1.5688,1.57,1.5724,1.5731,1.5731,1.5764,1.5777,1.5797,1.5799,1.5807,1.581,1.5809,1.582,1.582,1.5821,1.5824,1.5826,1.5812,1.5812,1.5812,1.5812,0,1.5613,1.5631,1.5641,1.5665,1.5678,1.5693,1.5709,1.5719,1.5726,1.5738,1.5755,1.5771,1.5789,1.5794,1.5802,1.5815,1.5814,1.5817,1.5817,1.5822,1.5825,1.5826,1.5811,1.5811,1.5812,1.5812,0,0,1.5618,1.5649,1.5653,1.5663,1.5686,1.5699,1.5714,1.5733,1.5741,1.5756,1.5768,1.579,1.5792,1.5802,1.5811,1.5818,1.5824,1.5819,1.582,1.5819,1.5838,1.5836,1.5837,1.5828,1.5828,1.5828,1.5837,0,1.5629,1.5658,1.5671,1.5693,1.5709,1.5719,1.5731,1.5746,1.5756,1.5769,1.578,1.5794,1.5797,1.5803,1.5811,1.5822,1.5828,1.5821,1.5837,1.5838,1.5833,1.5839,1.5837,1.5845,1.5838,1.5838,1.5838,0,1.5647,1.5663,1.5687,1.5708,1.5714,1.5726,1.5743,1.5756,1.5772,1.5778,1.579,1.5797,1.5811,1.581,1.5829,1.5824,1.5831,1.5837,1.5837,1.5839,1.5838,1.5841,1.5847,1.5848,1.584,1.584,1.584,0,1.5646,1.5674,1.5692,1.5701,1.5725,1.5732,1.5742,1.5758,1.5768,1.5782,1.5788,1.5804,1.5812,1.5823,1.5834,1.5832,1.585,1.5851,1.5855,1.5855,1.5859,1.5858,1.5866,1.5864,1.5864,1.5864,1.5864,0,1.5657,1.5671,1.5692,1.5703,1.5718,1.5732,1.5746,1.5757,1.577,1.5782,1.5791,1.5801,1.5815,1.5827,1.5835,1.5849,1.5852,1.5857,1.5859,1.5856,1.5855,1.5861,1.586,1.5864,1.5864,1.5864,1.5864,0,1.5659,1.5674,1.5694,1.5715,1.572,1.573,1.5748,1.5757,1.5768,1.5782,1.5786,1.5802,1.5816,1.5828,1.5846,1.5851,1.5865,1.5867,1.586,1.5861,1.5865,1.5864,1.5876,1.5878,1.5874,1.5874,1.5874,0,1.5665,1.5676,1.5699,1.5708,1.5718,1.5732,1.5742,1.5756,1.5765,1.5783,1.5791,1.5806,1.5818,1.584,1.5852,1.5865,1.5868,1.5871,1.587,1.5866,1.5867,1.5866,1.5867,1.5871,1.5871,1.5871,1.5871,0,1.5674,1.5681,1.5696,1.5713,1.5725,1.5738,1.5752,1.5758,1.5774,1.5784,1.5799,1.5809,1.5827,1.5841,1.5856,1.5864,1.587,1.5871,1.5873,1.587,1.5865,1.5867,1.586,1.5871,1.5871,1.5871,1.5871,1.5871,1.5678,1.5688,1.5705,1.5721,1.5732,1.5745,1.5755,1.5766,1.578,1.5797,1.5803,1.5818,1.5831,1.5852,1.586,1.5871,1.5872,1.5874,1.5875,1.5875,1.5874,1.5863,1.5874,1.5874,1.5874,1.5874,1.5874,0,1.5687,1.5698,1.5712,1.5732,1.5744,1.5749,1.5764,1.5773,1.5786,1.5799,1.5811,1.5828,1.5841,1.5854,1.5867,1.5873,1.5876,1.5876,1.5876,1.5877,1.5873,1.587,1.5874,1.5874,1.5874,1.5874,1.5874,1.5874,1.5693,1.5709,1.5717,1.5739,1.575,1.5766,1.5774,1.5784,1.5795,1.5813,1.5824,1.5833,1.5845,1.5859,1.5871,1.5874,1.5879,1.5878,1.5882,1.5878,1.5878,1.5878,1.5875,1.5879,1.5879,1.5885,1.5885,1.5885]},{"header":{"parameterUnit":"m.s-1","parameterCategory":1,"la1":30.2991,"la2":30.254,"lo1":-89.0895,"lo2":-89.0444,"dy":0.0017,"dx":0.0017,"nx":28,"ny":28,"refTime":"2024-06-15T09:00:00:Z","depth":0,"parameterNumber":3,"parameterNumberName":"V-component_of_WINDS"},"data":[0,0,0,0,0,0,0,0,0,0,0,0,0,0,0,0,0,0,0,0,0,0,0,0,0,0,0,0,0,0,0,0,0,0,0,0,0,0,0,0,0,0,0,0,0,0,0,0,0,0,0,0,0,0,0,0,0,0,0.6317,0.6316,0,0.6288,0.6287,0.6287,0.6236,0.6235,0.6234,0.6234,0.6205,0.6205,0.6205,0,0,0,0,0,0,0,0,0,0,0,0,0,0.6327,0.6328,0.6317,0.6316,0.6316,0.6288,0.6287,0.6287,0.6237,0.6235,0.6234,0.6233,0.6205,0.6205,0.6205,0,0,0,0,0,0,0,0,0,0,0,0,0,0.6313,0.6328,0.6317,0.6287,0.6284,0.6288,0.6287,0.6287,0.6237,0.6235,0.6234,0.6233,0.6204,0.6205,0.6205,0.6235,0,0,0.6205,0.6206,0,0,0,0,0,0,0,0,0.6314,0.6313,0.6292,0.6289,0.6286,0.6264,0.628,0.6269,0.6237,0.6255,0.6234,0.6232,0.6226,0.6224,0.6222,0.6233,0.6232,0.6205,0.6206,0.6206,0.6206,0,0,0,0,0,0,0,0.6315,0.6314,0.6305,0.6292,0.6288,0.6275,0.6272,0.6278,0.6249,0.6253,0.625,0.6247,0.6224,0.6222,0.6221,0.6232,0.6205,0.6206,0.6206,0.6206,0.6264,0.6266,0,0,0,0,0,0,0.632,0.6315,0.6306,0.6304,0.6297,0.6276,0.6272,0.6273,0.6249,0.6243,0.6248,0.6244,0.6222,0.6221,0.6219,0.6252,0.6206,0.6206,0.6206,0.6263,0.6265,0.6266,0,0,0,0,0,0,0.6321,0.632,0.6307,0.6309,0.6306,0.6278,0.6279,0.6273,0.6271,0.6244,0.6239,0.6251,0.6221,0.6219,0.6231,0.625,0.6206,0.6206,0.6261,0.6263,0.6265,0.6317,0,0,0,0,0,0,0.6321,0.6321,0.6332,0.6309,0.6306,0.632,0.628,0.6273,0.6271,0.6266,0.6246,0.6242,0.622,0.6231,0.6231,0.6249,0.6206,0.6259,0.6262,0.6265,0.6314,0.6321,0.6327,0,0,0,0,0,0.6322,0.6348,0.6333,0.6332,0.632,0.6321,0.6319,0.6293,0.6273,0.6284,0.6267,0.6242,0.6248,0.6232,0.6232,0.6251,0.6258,0.6261,0.6264,0.6311,0.6319,0.6327,0,0,0,0,0,0,0.6375,0.6345,0.6328,0.6347,0.6337,0.6312,0.6326,0.6304,0.6299,0.6295,0.6263,0.6259,0.6274,0.6264,0.6247,0.6277,0.6249,0.6252,0.6284,0.6292,0.6299,0.6301,0.6206,0,0,0,0,0,0.6389,0.6393,0.6366,0.6386,0.6382,0.6355,0.6354,0.6335,0.6323,0.6318,0.6302,0.6291,0.629,0.6291,0.6289,0.6311,0.6306,0.6324,0.6331,0.6336,0.634,0.6349,0.6357,0.6277,0.6277,0.6277,0,0,0.6418,0.6402,0.6406,0.6396,0.6386,0.639,0.6351,0.6357,0.636,0.6319,0.6329,0.6316,0.6302,0.6319,0.6326,0.6311,0.636,0.6341,0.6345,0.6345,0.6354,0.6361,0.6368,0.6279,0.6279,0.6278,0,0,0.6473,0.6462,0.6476,0.6466,0.6451,0.6432,0.6436,0.6414,0.6404,0.6413,0.6382,0.6384,0.6383,0.6374,0.6369,0.6418,0.6395,0.6418,0.6453,0.6463,0.647,0.6475,0.6491,0.6498,0.6422,0.6422,0.6422,0,0.6511,0.6516,0.6487,0.6494,0.649,0.6452,0.6467,0.6458,0.6443,0.6441,0.6424,0.6421,0.6409,0.6423,0.6435,0.6432,0.6435,0.6421,0.6471,0.6476,0.6481,0.6496,0.6502,0.6425,0.6424,0.6424,0.6424,0,0.6563,0.6566,0.658,0.6565,0.6563,0.6574,0.6545,0.6546,0.6527,0.651,0.6518,0.6502,0.6495,0.6497,0.6478,0.6507,0.6498,0.6477,0.6447,0.6492,0.6506,0.6511,0.6429,0.6428,0.6427,0.6426,0,0,0.6652,0.6619,0.6625,0.6617,0.6596,0.6598,0.6606,0.6599,0.66,0.659,0.6596,0.6595,0.6574,0.6569,0.6548,0.6557,0.6595,0.6534,0.6533,0.6546,0.6625,0.6641,0.6648,0.658,0.6581,0.6581,0.6626,0,0.6702,0.6715,0.6688,0.6707,0.6709,0.6672,0.6679,0.6667,0.6651,0.665,0.6632,0.6631,0.6605,0.6601,0.6608,0.6589,0.6611,0.6586,0.6584,0.6584,0.6589,0.6656,0.6673,0.6716,0.6631,0.6632,0.6633,0,0.6763,0.6755,0.6774,0.675,0.675,0.6757,0.6747,0.6746,0.6731,0.6718,0.6711,0.6687,0.6693,0.6664,0.6671,0.6654,0.6652,0.6643,0.6644,0.6642,0.6611,0.6656,0.6729,0.6735,0.6641,0.664,0.664,0,0.6825,0.6819,0.6829,0.6823,0.6796,0.6801,0.679,0.6773,0.677,0.6761,0.6758,0.6751,0.6746,0.6741,0.6714,0.6696,0.6724,0.6693,0.6713,0.6714,0.6721,0.6721,0.6794,0.672,0.672,0.672,0.672,0,0.6883,0.6896,0.6856,0.6862,0.6875,0.6843,0.6857,0.6842,0.6827,0.6829,0.6797,0.68,0.6765,0.6764,0.6743,0.6751,0.675,0.6739,0.6734,0.6742,0.6743,0.674,0.6736,0.6721,0.6721,0.6721,0.6721,0,0.6955,0.6929,0.6937,0.691,0.6903,0.6914,0.689,0.6894,0.6875,0.6878,0.6877,0.6848,0.6844,0.6817,0.6808,0.6794,0.681,0.6799,0.6815,0.6811,0.6832,0.683,0.6906,0.6914,0.6835,0.6836,0.6836,0,0.6994,0.7003,0.6976,0.6975,0.6965,0.6964,0.696,0.6928,0.6925,0.6907,0.6913,0.6907,0.6901,0.6896,0.6874,0.6866,0.6854,0.6881,0.6853,0.6861,0.6854,0.6853,0.6854,0.6887,0.6888,0.6889,0.689,0,0.7066,0.7052,0.7048,0.7038,0.7034,0.7025,0.7014,0.7015,0.698,0.6978,0.6973,0.6968,0.6958,0.6951,0.6939,0.6927,0.6903,0.6899,0.6903,0.6912,0.692,0.6915,0.6831,0.6897,0.6897,0.6896,0.6896,0.6895,0.7122,0.7128,0.7109,0.7104,0.7092,0.7083,0.7085,0.7065,0.7061,0.705,0.7031,0.7029,0.7012,0.6993,0.6982,0.698,0.6966,0.6972,0.6973,0.6975,0.6979,0.6921,0.6978,0.6978,0.6977,0.6977,0.6977,0,0.7192,0.7178,0.7174,0.7158,0.7154,0.7131,0.7117,0.7115,0.7113,0.7099,0.7093,0.7087,0.708,0.7056,0.7047,0.7049,0.7038,0.7048,0.7047,0.7045,0.6993,0.699,0.7057,0.7057,0.7057,0.7057,0.7057,0.7057,0.7228,0.7235,0.7219,0.7219,0.7205,0.7202,0.7196,0.7186,0.7174,0.7169,0.7163,0.7147,0.7129,0.7117,0.711,0.7103,0.7101,0.7115,0.7104,0.7056,0.7049,0.7041,0.7038,0.7114,0.7115,0.7156,0.7156,0.7156]}]]